BAW1021 SPZO-SEQM

Flight info

Callsign BAW1021
Flight time N/A
Altitude 40000
Route GAXUN UT321 JCL UM674 BOBUG/N0490F390 UM674 ROBIG/N0488F400 UM674 KETOM
Aircraft L101/H-SDFGHIRWXY/S

Departure

Time 2026-05-01 14:37
Airport Alejandro Velasco Astete International Airport (SPZO)

Arrival

Time N/A
Airport Mariscal Sucre International Airport (SEQM)
Time Latitude Longitude Altitude Speed Heading
2026-05-01 14:20 -13.53772 -71.94315 10822 ft 0 kts 279°
2026-05-01 14:24 -13.53774 -71.94300 10819 ft 2 kts 279°
2026-05-01 14:24 -13.53777 -71.94284 10819 ft 2 kts 279°
2026-05-01 14:24 -13.53781 -71.94268 10820 ft 2 kts 293°
2026-05-01 14:25 -13.53787 -71.94253 10822 ft 2 kts 294°
2026-05-01 14:25 -13.53788 -71.94251 10822 ft 0 kts 294°
2026-05-01 14:26 -13.53750 -71.94270 10820 ft 6 kts
2026-05-01 14:26 -13.53702 -71.94268 10820 ft 8 kts 356°
2026-05-01 14:27 -13.53669 -71.94301 10822 ft 4 kts 279°
2026-05-01 14:27 -13.53668 -71.94305 10822 ft 2 kts 278°
2026-05-01 14:27 -13.53666 -71.94329 10822 ft 5 kts 274°
2026-05-01 14:28 -13.53651 -71.94443 10822 ft 12 kts 276°
2026-05-01 14:28 -13.53643 -71.94537 10819 ft 15 kts 275°
2026-05-01 14:28 -13.53634 -71.94636 10828 ft 13 kts 275°
2026-05-01 14:28 -13.53626 -71.94721 10831 ft 11 kts 276°
2026-05-01 14:29 -13.53618 -71.94797 10837 ft 10 kts 276°
2026-05-01 14:29 -13.53611 -71.94861 10847 ft 8 kts 276°
2026-05-01 14:30 -13.53599 -71.94962 10858 ft 5 kts 277°
2026-05-01 14:30 -13.53593 -71.95015 10857 ft 10 kts 276°
2026-05-01 14:30 -13.53583 -71.95104 10862 ft 15 kts 276°
2026-05-01 14:31 -13.53562 -71.95369 10868 ft 14 kts 277°
2026-05-01 14:31 -13.53546 -71.95455 10872 ft 10 kts 299°
2026-05-01 14:31 -13.53497 -71.95475 10873 ft 5 kts 20°
2026-05-01 14:31 -13.53495 -71.95474 10873 ft 0 kts 23°
2026-05-01 14:34 -13.53492 -71.95473 10869 ft 2 kts 25°
2026-05-01 14:34 -13.53469 -71.95457 10873 ft 6 kts 37°
2026-05-01 14:35 -13.53428 -71.95428 10878 ft 8 kts 49°
2026-05-01 14:35 -13.53423 -71.95373 10870 ft 0 kts 97°
2026-05-01 14:36 -13.53428 -71.95329 10870 ft 32 kts 95°
2026-05-01 14:36 -13.53479 -71.94811 10836 ft 114 kts 95°
2026-05-01 14:36 -13.53578 -71.93760 10889 ft 174 kts 95°
2026-05-01 14:37 -13.53710 -71.92453 11788 ft 191 kts 96°
2026-05-01 14:37 -13.53871 -71.91102 12761 ft 201 kts 96°
2026-05-01 14:37 -13.54065 -71.89604 13381 ft 222 kts 99°
2026-05-01 14:37 -13.54540 -71.88029 13791 ft 244 kts 111°
2026-05-01 14:38 -13.55295 -71.86300 13920 ft 285 kts 113°
2026-05-01 14:38 -13.56100 -71.84339 14288 ft 309 kts 113°
2026-05-01 14:38 -13.56971 -71.82317 14903 ft 309 kts 113°
2026-05-01 14:38 -13.57792 -71.80290 15734 ft 313 kts 111°
2026-05-01 14:39 -13.58560 -71.78176 16540 ft 319 kts 105°
2026-05-01 14:39 -13.58840 -71.75915 17302 ft 320 kts 86°
2026-05-01 14:39 -13.58406 -71.73675 18086 ft 323 kts 69°
2026-05-01 14:39 -13.57305 -71.71663 18817 ft 326 kts 51°
2026-05-01 14:40 -13.55634 -71.70077 19481 ft 330 kts 33°
2026-05-01 14:40 -13.53530 -71.69142 20122 ft 333 kts 10°
2026-05-01 14:40 -13.51221 -71.69165 20823 ft 336 kts 347°
2026-05-01 14:40 -13.49121 -71.70137 21530 ft 340 kts 323°
2026-05-01 14:41 -13.47531 -71.71932 22283 ft 345 kts 300°
2026-05-01 14:41 -13.46749 -71.74260 23050 ft 349 kts 277°
2026-05-01 14:41 -13.46691 -71.76772 23943 ft 355 kts 271°
2026-05-01 14:41 -13.46536 -71.79315 24670 ft 360 kts 282°
2026-05-01 14:42 -13.45831 -71.81838 25175 ft 380 kts 291°
2026-05-01 14:42 -13.44826 -71.84433 25425 ft 407 kts 293°
2026-05-01 14:42 -13.43797 -71.87242 25658 ft 433 kts 290°
2026-05-01 14:42 -13.42854 -71.90224 25877 ft 455 kts 288°
2026-05-01 14:43 -13.41891 -71.93349 26091 ft 463 kts 289°
2026-05-01 14:43 -13.40850 -71.96485 26309 ft 465 kts 291°
2026-05-01 14:43 -13.39731 -71.99607 26522 ft 467 kts 291°
2026-05-01 14:43 -13.38577 -72.02732 26717 ft 468 kts 292°
2026-05-01 14:44 -13.37423 -72.05856 27118 ft 469 kts 292°
2026-05-01 14:44 -13.35102 -72.12184 27819 ft 477 kts 292°
2026-05-01 14:44 -13.33932 -72.15367 28426 ft 477 kts 292°
2026-05-01 14:45 -13.32772 -72.18511 28991 ft 478 kts 292°
2026-05-01 14:45 -13.30392 -72.24947 29979 ft 482 kts 292°
2026-05-01 14:45 -13.29214 -72.28149 30631 ft 479 kts 293°
2026-05-01 14:46 -13.28077 -72.31377 30947 ft 484 kts 290°
2026-05-01 14:46 -13.26265 -72.38167 31210 ft 500 kts 285°
2026-05-01 14:46 -13.25512 -72.41647 31406 ft 499 kts 284°
2026-05-01 14:47 -13.24819 -72.45088 31656 ft 498 kts 283°
2026-05-01 14:47 -13.23976 -72.48509 31892 ft 494 kts 293°
2026-05-01 14:47 -13.22384 -72.51621 31836 ft 491 kts 305°
2026-05-01 14:48 -13.18673 -72.57554 31492 ft 499 kts 299°
2026-05-01 14:48 -13.17221 -72.60794 31193 ft 500 kts 294°
2026-05-01 14:48 -13.14746 -72.67452 31147 ft 498 kts 293°
2026-05-01 14:49 -13.12207 -72.74028 32039 ft 494 kts 294°
2026-05-01 14:49 -13.09991 -72.80659 32337 ft 497 kts 286°
2026-05-01 14:50 -13.06810 -72.94476 32321 ft 497 kts 286°
2026-05-01 14:51 -13.04414 -73.04784 32303 ft 495 kts 285°
2026-05-01 14:52 -13.02075 -73.15037 32297 ft 495 kts 285°
2026-05-01 14:53 -12.99723 -73.25336 32285 ft 495 kts 285°
2026-05-01 14:53 -12.98147 -73.32209 32295 ft 494 kts 285°
2026-05-01 14:54 -12.96588 -73.39012 32296 ft 494 kts 285°
2026-05-01 14:54 -12.95015 -73.45870 32282 ft 494 kts 285°
2026-05-01 14:55 -12.93670 -73.52758 32184 ft 492 kts 278°
2026-05-01 14:55 -12.94104 -73.59701 32335 ft 499 kts 261°
2026-05-01 14:55 -12.95099 -73.63136 32593 ft 506 kts 252°
2026-05-01 14:56 -12.96563 -73.66379 32976 ft 510 kts 244°
2026-05-01 14:56 -12.98492 -73.69421 33368 ft 509 kts 236°
2026-05-01 14:56 -13.00833 -73.72153 33741 ft 512 kts 227°
2026-05-01 14:56 -13.03549 -73.74526 34129 ft 515 kts 219°
2026-05-01 14:57 -13.06586 -73.76490 34501 ft 518 kts 211°
2026-05-01 14:57 -13.13348 -73.79167 35200 ft 526 kts 199°
2026-05-01 14:57 -13.16923 -73.80000 35351 ft 530 kts 188°
2026-05-01 14:58 -13.20631 -73.80099 35205 ft 536 kts 178°
2026-05-01 14:58 -13.24267 -73.79515 35187 ft 537 kts 166°
2026-05-01 14:58 -13.27798 -73.78260 35318 ft 539 kts 156°
2026-05-01 14:58 -13.31109 -73.76462 35557 ft 537 kts 148°
2026-05-01 14:59 -13.34176 -73.74282 35795 ft 537 kts 142°
2026-05-01 14:59 -13.37052 -73.71830 36030 ft 537 kts 137°
2026-05-01 14:59 -13.39790 -73.69222 36282 ft 537 kts 135°
2026-05-01 14:59 -13.42444 -73.66541 36532 ft 535 kts 134°
2026-05-01 15:00 -13.47685 -73.61147 36989 ft 537 kts 134°
2026-05-01 15:00 -13.50354 -73.58459 37239 ft 537 kts 135°
2026-05-01 15:00 -13.53031 -73.55815 37398 ft 533 kts 136°
2026-05-01 15:01 -13.55729 -73.53186 37477 ft 535 kts 135°
2026-05-01 15:01 -13.61123 -73.47914 37573 ft 536 kts 135°
2026-05-01 15:02 -13.66439 -73.42548 37627 ft 535 kts 132°
2026-05-01 15:02 -13.71379 -73.36891 37636 ft 535 kts 129°
2026-05-01 15:03 -13.76195 -73.31054 37642 ft 535 kts 128°
2026-05-01 15:03 -13.80376 -73.24800 37542 ft 527 kts 107°
2026-05-01 15:04 -13.82392 -73.17608 37541 ft 529 kts 109°
2026-05-01 15:04 -13.85930 -73.11009 37372 ft 533 kts 121°
2026-05-01 15:05 -13.89921 -73.04570 37349 ft 533 kts 119°
2026-05-01 15:05 -13.93653 -72.97988 37345 ft 533 kts 117°
2026-05-01 15:06 -13.97288 -72.91344 37337 ft 532 kts 117°
2026-05-01 15:06 -14.00895 -72.84761 37337 ft 532 kts 117°
2026-05-01 15:07 -14.04564 -72.78136 37333 ft 531 kts 118°
2026-05-01 15:07 -14.08245 -72.71513 37336 ft 533 kts 117°
2026-05-01 15:08 -14.11920 -72.64879 37321 ft 533 kts 117°
2026-05-01 15:08 -14.15563 -72.58291 37333 ft 532 kts 117°
2026-05-01 15:09 -14.19225 -72.51661 37313 ft 532 kts 117°
2026-05-01 15:09 -14.22880 -72.45037 37312 ft 532 kts 117°
2026-05-01 15:10 -14.26535 -72.38411 37318 ft 532 kts 117°
2026-05-01 15:10 -14.32005 -72.28492 37310 ft 534 kts 117°
2026-05-01 15:11 -14.37505 -72.18512 37285 ft 534 kts 117°
2026-05-01 15:12 -14.41167 -72.11858 37288 ft 533 kts 117°
2026-05-01 15:12 -14.44808 -72.05240 36736 ft 534 kts 117°
2026-05-01 15:12 -14.46639 -72.01908 36235 ft 532 kts 117°
2026-05-01 15:13 -14.52015 -71.92116 35684 ft 519 kts 117°
2026-05-01 15:14 -14.55564 -71.85640 35447 ft 517 kts 117°
2026-05-01 15:14 -14.57332 -71.82413 35319 ft 516 kts 117°
2026-05-01 15:14 -14.60829 -71.76022 35100 ft 514 kts 117°
2026-05-01 15:15 -14.64331 -71.69617 34850 ft 511 kts 117°
2026-05-01 15:15 -14.67822 -71.63228 34393 ft 509 kts 117°
2026-05-01 15:16 -14.71293 -71.56876 33888 ft 506 kts 117°
2026-05-01 15:16 -14.74712 -71.50615 33375 ft 501 kts 117°
2026-05-01 15:17 -14.78212 -71.44419 32636 ft 503 kts 119°
2026-05-01 15:18 -14.83810 -71.34842 31540 ft 521 kts 119°
2026-05-01 15:18 -14.85648 -71.31625 31190 ft 518 kts 118°
2026-05-01 15:19 -14.90979 -71.22042 29840 ft 510 kts 118°
2026-05-01 15:19 -14.94405 -71.15702 28800 ft 499 kts 117°
2026-05-01 15:19 -14.96071 -71.12578 28291 ft 494 kts 117°
2026-05-01 15:20 -14.99323 -71.06413 27312 ft 483 kts 117°
2026-05-01 15:20 -15.00911 -71.03380 26829 ft 477 kts 117°
2026-05-01 15:20 -15.02479 -71.00373 26348 ft 472 kts 117°
2026-05-01 15:21 -15.04004 -70.97440 25910 ft 467 kts 117°
2026-05-01 15:21 -15.05532 -70.94493 25515 ft 461 kts 117°
2026-05-01 15:21 -15.07037 -70.91586 25284 ft 457 kts 117°
2026-05-01 15:21 -15.08535 -70.88690 25052 ft 455 kts 117°
2026-05-01 15:22 -15.11510 -70.82940 24613 ft 452 kts 117°
2026-05-01 15:22 -15.12991 -70.80079 24393 ft 450 kts 117°
2026-05-01 15:22 -15.14467 -70.77229 24176 ft 448 kts 117°
2026-05-01 15:23 -15.15916 -70.74432 23971 ft 446 kts 117°
2026-05-01 15:23 -15.17374 -70.71618 23732 ft 442 kts 117°
2026-05-01 15:23 -15.18826 -70.68813 23463 ft 440 kts 117°
2026-05-01 15:23 -15.20269 -70.66031 23200 ft 438 kts 117°
2026-05-01 15:24 -15.21706 -70.63261 22959 ft 435 kts 117°
2026-05-01 15:24 -15.23135 -70.60506 22701 ft 433 kts 117°
2026-05-01 15:24 -15.24556 -70.57771 22441 ft 431 kts 117°
2026-05-01 15:24 -15.25970 -70.55047 22192 ft 428 kts 117°
2026-05-01 15:25 -15.27359 -70.52374 21952 ft 427 kts 117°
2026-05-01 15:25 -15.28767 -70.49668 21700 ft 426 kts 117°
2026-05-01 15:25 -15.30171 -70.46974 21439 ft 425 kts 117°
2026-05-01 15:25 -15.31572 -70.44284 21200 ft 423 kts 117°
2026-05-01 15:26 -15.32962 -70.41613 20956 ft 420 kts 117°
2026-05-01 15:26 -15.34345 -70.38956 20725 ft 418 kts 117°
2026-05-01 15:26 -15.35722 -70.36311 20490 ft 415 kts 117°
2026-05-01 15:26 -15.37090 -70.33685 20259 ft 414 kts 117°
2026-05-01 15:27 -15.38436 -70.31103 20356 ft 412 kts 117°
2026-05-01 15:27 -15.39795 -70.28502 20183 ft 409 kts 118°
2026-05-01 15:27 -15.41315 -70.26016 19997 ft 408 kts 124°
2026-05-01 15:28 -15.44878 -70.21463 19594 ft 405 kts 130°
2026-05-01 15:28 -15.46755 -70.19292 19376 ft 404 kts 131°
2026-05-01 15:28 -15.48648 -70.17151 18644 ft 402 kts 131°
2026-05-01 15:29 -15.52446 -70.12917 17896 ft 399 kts 132°
2026-05-01 15:29 -15.54308 -70.10849 17525 ft 396 kts 132°
2026-05-01 15:29 -15.58012 -70.06721 16784 ft 377 kts 131°
2026-05-01 15:30 -15.60402 -70.03168 16213 ft 348 kts 117°
2026-05-01 15:31 -15.60697 -69.93857 15167 ft 302 kts 50°
2026-05-01 15:31 -15.57161 -69.91866 14697 ft 294 kts
2026-05-01 15:32 -15.53624 -69.93491 14380 ft 285 kts 307°
2026-05-01 15:32 -15.52674 -69.96630 14287 ft 271 kts 275°
2026-05-01 15:33 -15.51468 -70.02476 14281 ft 239 kts 288°
2026-05-01 15:34 -15.49846 -70.07276 13840 ft 233 kts 288°